STARLINK BC

Last updated on June 19, 2020, 12:02 a.m. UTC

1 45780U 20038BC  20170.75001157  .00110951  11275-4  13763-3 0  9993
2 45780  52.9995 271.8065 0111410  69.5047 148.3743 15.96166575  1959

Satellite is not in orbit.